{"data":{"norad_id":60495,"intl_designator":"2024-149AD","name":"FLOCK 4BE-34","alt_names":[],"object_type":"PAYLOAD","status":"ACTIVE","operator":null,"country":"US","launch_date":"2024-08-16","launch_site_code":"AFWTR","launch_vehicle":null,"mission":null,"orbit_class":"UNKNOWN","rcs_meters":null,"size_class":null,"mass_kg":null,"dimensions":null,"purposes":["earth_obs"],"wikipedia_slug":null,"has_3d_model":false,"image_url":null,"decayed_at":null,"tle_current":{"epoch":"2026-05-25T05:30:22.859136Z","epoch_age_seconds":62131,"freshness":"FRESH","line1":"1 60495U 24149AD  26145.22943124  .00014598  00000+0  36291-3 0  9999","line2":"2 60495  97.3777 229.3943 0003372  32.6711 327.4744 15.40399404 98796","mean_motion":15.40399404,"eccentricity":0.0003372,"inclination_deg":97.3777,"raan_deg":229.3943,"arg_perigee_deg":32.6711,"mean_anomaly_deg":327.4744,"bstar":0.00036291,"rev_number":9879,"period_min":93.48224858181,"perigee_km":442.62890790338,"apogee_km":447.23038404943,"semimajor_km":6823.0666459764,"source":"CELESTRAK","updated_at":"2026-05-25T13:38:13.304665Z"}}}